Location: Salillas
(41.9950°N, 0.2228°W)
Time: 08:59:23
(UTC+00:00)

Cosmos 1626 - Pass Details

Date: 29 March 2020
Orbit: 492 x 494 km, 82.5° (Epoch: 03 June)

Event Time Altitude Azimuth Distance (km) Brightness Sun altitude
Rises 20:26:37 0° 338° (NNW) 2,584 6.5 -22.6°
Reaches altitude 10° 20:29:01 10° 324° (NW) 1,697 5.7 -23.0°
Maximum altitude 20:32:01 23° 270° (W) 1,076 4.4 -23.5°
Drops below altitude 10° 20:34:59 10° 216° (SW) 1,686 4.9 -23.9°
Enters shadow 20:35:03 10° 216° (SW) 1,704 4.9 -24.0°
